Location: El Gallo
(32.4380°N, 116.9347°W)
Time: 19:06:56
(UTC+00:00)

Cosmos 1741 Rocket - Pass Details

Date: 01 October 2022
Orbit: 761 x 781 km, 74.0° (Epoch: 02 December)

Event Time Altitude Azimuth Distance (km) Brightness Sun altitude
Rises 12:58:12 0° 340° (NNW) 3,227 7.1 -10.0°
Reaches altitude 10° 13:00:36 10° 338° (NNW) 2,297 6.3 -9.5°
Maximum altitude 13:05:45 69° 256° (WSW) 815 3.9 -8.4°
Drops below altitude 10° 13:10:54 10° 174° (S) 2,285 6.5 -7.4°
Sets 13:13:16 0° 171° (S) 3,208 7.3 -6.9°
